Starlink 31818

operational
NORAD ID: 59741 Int'l Des: 2024-090 Owner: SPXS Country: US Constellation: starlink
LEOCIRCULAR

About Starlink 31818

Description loading...

Live Position

Loading 3D Globe...

Upcoming Passes

Altitude History

Altitude vs Time

uPlot chart will show altitude changes over time

Two-Line Element Set

1 59741U 24090M 25351.14600623 .00001956 00000-0 80560-4 0 9993
2 59741 43.0049 289.8728 0001238 261.5380 98.5331 15.27587890 90810
Epoch: Dec 17, 2025 • Age: 13 hours

Current Status

Altitude 483.1 km
Velocity 7.63 km/s
Sub-Earth Point 22.13°N, 17.01°W
Launch Date May 13, 2024
Age 1.5 years
Type internet

Technical Details

Classification Payload
Mass 730.00 kg
Dry Mass 700.00 kg
Total Mass 730.00 kg
Length 0.30 m
Diameter 4.10 m
Span 29.00 m
Shape Box + pan
Manufacturer SPXS
Bus Type Starlink V2M
Phase Status In Orbit
Owner/State SPXS/US

Large Constellations

Loading constellations...